Theta_e
307 308 309 309 309 309 313 318 320 320 319 317 314 311 305 307 311 310 309 310 309 309 306 309 309 308 309 310 310 310 310 311 312 312 312 312 310 312 311 312 313 313 313 315 323
308 308 307 308 307 307 307 314 318 319 319 318 316 311 305 308 310 310 310 312 309 307 307 309 307 307 307 307 309 309 308 309 309 309 308 308 309 309 309 309 310 311 313 319 326
308 307 307 307 308 307 306 307 315 317 318 318 317 311 304 309 308 309 309 311 305 304 308 308 306 307 307 307 308 309 309 309 309 309 309 310 309 308 308 308 309 310 312 313 316
307 307 306 307 306 306 306 305 313 315 317 318 316 310 307 309 309 308 307 304 305 306 308 307 308 308 307 307 307 306 307 307 308 308 308 307 307 307 307 307 308 309 310 312 315
306 306 307 305 306 306 303 298 308 315 317 317 316 309 308 309 309 306 303 310 308 307 308 308 307 307 307 307 307 307 307 308 308 308 308 307 307 307 307 307 307 308 308 310 312
307 306 305 305 305 305 300 297 301 313 315 314 310 306 308 310 308 308 306 305 306 306 307 307 307 307 307 307 307 307 308 308 308 308 309 310 310 307 307 307 307 307 308 308 311
306 307 306 306 305 303 300 297 298 310 315 313 308 308 308 310 306 307 306 305 305 307 307 307 308 307 307 307 307 308 308 309 308 308 309 310 310 309 308 307 307 307 307 307 310
305 306 306 306 305 303 299 303 302 312 314 311 309 308 309 309 306 306 307 306 306 307 308 308 307 307 307 307 307 307 308 308 309 309 309 309 308 308 308 308 307 307 307 307 308
304 306 305 305 305 303 299 311 310 311 311 309 309 309 309 309 308 306 305 306 307 308 308 308 308 308 307 306 306 307 305 307 309 310 310 310 310 309 309 308 307 307 307 307 309
302 302 302 302 304 303 300 302 310 309 309 307 307 307 307 308 307 307 306 306 307 309 309 308 307 307 309 307 304 309 308 309 310 311 311 312 313 312 310 309 308 310 310 309 312
302 304 303 303 303 302 304 307 306 306 308 308 308 309 308 307 306 305 305 306 308 308 309 309 308 307 306 307 306 308 309 309 309 310 313 313 313 312 310 311 310 309 311 312 314
302 303 303 304 303 303 304 307 306 305 306 307 308 308 307 307 307 306 305 307 308 306 308 309 309 307 308 308 309 309 311 310 310 312 313 313 313 311 310 310 311 311 313 312 313
302 302 303 303 303 305 303 306 306 307 308 308 306 308 307 306 307 306 306 307 308 307 306 306 308 309 309 311 312 312 312 310 312 311 312 313 315 313 312 312 310 313 313 314 315
302 303 303 303 303 304 303 305 305 306 309 308 308 308 307 307 308 306 305 307 307 307 306 307 307 310 311 312 313 314 311 313 315 315 316 313 315 315 313 312 313 312 314 315 315
302 303 303 304 304 305 304 305 305 306 310 308 307 306 307 308 306 306 306 308 307 307 308 308 313 312 312 312 313 313 313 314 314 317 314 315 317 318 314 314 314 311 313 315 318
303 303 302 300 301 304 305 306 305 307 309 309 307 308 308 308 306 307 307 307 307 309 308 308 310 311 312 313 313 313 314 314 315 316 319 319 319 317 314 313 313 316 316 319 321
302 303 304 304 304 304 304 305 306 309 309 308 309 308 308 307 307 307 306 308 307 307 310 311 311 312 311 311 312 313 315 315 319 320 321 317 318 315 310 314 314 320 322 322 322
300 301 301 303 304 303 304 305 309 310 308 308 308 309 310 309 309 307 306 306 307 309 309 307 310 312 312 313 315 314 316 318 319 323 323 317 316 312 310 319 318 318 317 320 321
302 302 302 302 302 303 304 306 309 310 309 309 309 308 308 308 308 307 307 309 311 309 313 314 314 313 312 312 313 316 318 315 317 319 320 318 313 311 312 315 316 316 316 315 315
302 302 303 302 302 304 302 309 308 308 308 309 310 307 307 307 307 309 309 311 313 312 311 313 313 312 312 313 313 313 314 317 316 319 322 319 317 315 312 316 315 314 314 314 315
303 302 302 301 302 304 306 308 307 307 308 311 310 309 306 308 310 311 313 312 312 313 311 311 311 315 314 316 315 314 315 315 313 314 320 318 318 311 315 314 313 311 311 313 313
301 300 301 303 301 304 305 305 306 308 309 309 310 310 307 310 311 313 314 313 312 312 314 312 314 313 315 313 312 312 314 312 312 315 312 312 317 314 313 312 311 310 309 309 309
301 302 302 304 301 302 304 306 306 309 310 311 310 310 310 313 313 313 313 312 312 312 311 311 310 311 312 310 310 314 312 312 314 311 312 311 318 313 310 309 309 309 310 310 310
303 296 302 304 305 304 305 305 309 309 310 311 311 310 311 312 311 312 313 312 312 312 311 311 309 310 309 312 311 312 312 311 311 309 313 313 315 311 310 309 309 310 310 310 310
305 301 303 301 304 304 305 305 309 310 310 310 310 311 311 312 312 313 312 312 312 312 311 310 308 303 310 312 312 310 311 312 311 311 313 313 313 311 308 307 308 310 310 310 310
305 304 306 305 305 305 304 307 309 310 309 309 310 311 310 311 310 312 311 310 310 309 310 309 307 310 310 309 309 309 309 311 312 311 311 310 311 309 309 310 309 310 310 310 310
306 306 305 304 302 304 304 307 309 309 309 310 309 310 310 309 308 309 311 310 310 310 309 310 307 307 308 309 309 310 309 309 311 310 311 312 310 307 308 308 309 310 310 309 309
Wind_Speed
16 17 19 17 18 20 25 17 3 21 18 12 9 9 9 7 9 10 9 3 8 9 7 7 2 5 3 3 5 3 2 2 4 7 8 16 12 31 20 16 27 24 24 23 12
19 18 18 18 19 20 18 23 17 11 23 14 11 9 6 7 10 16 4 9 11 10 9 6 2 7 4 2 3 5 4 6 5 4 6 17 16 20 19 24 20 32 24 10 8
20 20 19 19 19 21 19 16 18 21 24 17 14 7 6 7 6 5 10 15 10 11 8 10 5 4 2 3 6 5 4 3 12 22 23 19 20 21 15 16 15 21 31 25 20
22 21 18 20 20 20 19 20 18 9 27 26 16 7 10 8 3 9 9 13 9 12 6 7 5 4 4 3 6 6 11 14 15 20 21 17 22 20 23 21 28 27 31 27 20
24 22 19 18 20 20 20 19 21 16 20 25 15 9 13 6 7 9 14 8 10 11 9 7 6 2 3 3 8 9 7 14 20 22 22 27 23 23 30 36 33 34 31 30 23
24 24 19 18 19 20 20 19 13 18 19 19 14 16 13 4 4 14 11 11 6 8 9 6 4 3 3 4 4 6 16 20 22 22 23 20 22 23 21 27 35 35 34 29 27
27 24 18 17 18 19 22 18 14 20 24 21 14 16 12 7 5 9 10 9 10 8 6 6 7 7 3 4 8 13 9 10 12 16 10 21 18 25 26 27 32 33 34 26 26
27 25 19 19 15 17 19 15 12 21 23 11 17 14 8 14 9 10 16 10 6 8 7 7 8 6 5 7 8 4 2 4 3 3 9 8 18 18 18 24 27 33 34 31 28
30 23 19 16 11 13 12 5 13 18 17 17 15 7 4 12 17 14 13 10 8 6 4 3 8 4 2 1 3 3 2 4 9 3 7 7 13 11 24 23 24 27 29 33 27
28 12 8 3 8 10 8 10 16 17 20 16 13 5 4 6 15 15 9 7 13 8 6 4 1 2 3 2 3 1 4 7 11 5 12 19 21 17 18 17 21 16 24 26 27
16 12 4 3 10 7 4 6 9 6 7 6 12 4 14 15 14 12 11 11 10 8 5 6 1 7 8 9 6 6 7 14 17 16 12 12 18 16 12 12 12 17 21 25 24
10 7 2 4 5 7 9 7 4 6 2 4 8 10 14 11 6 10 13 8 6 8 6 1 9 11 10 10 10 12 15 18 18 9 4 11 13 11 8 8 11 17 21 28 19
10 6 5 7 2 5 9 4 1 7 2 7 12 3 5 4 4 14 15 7 6 6 7 6 7 2 10 5 8 13 11 10 12 7 11 12 9 6 4 10 17 19 19 23 16
6 7 3 7 9 6 3 8 3 2 3 2 6 5 5 6 1 15 14 2 4 5 7 6 9 8 6 10 9 12 8 9 8 2 3 3 5 2 3 6 5 16 16 11 15
7 15 14 14 9 6 6 10 10 5 4 4 4 7 10 2 13 6 7 3 4 4 1 5 2 1 4 6 2 7 9 11 13 8 2 6 5 0 7 6 7 8 15 14 10
18 19 16 11 9 9 6 10 6 1 4 4 4 7 5 2 5 6 4 4 6 3 5 7 5 3 4 4 6 7 8 12 6 3 5 0 3 1 4 6 6 3 12 14 17
20 19 17 11 7 9 9 7 3 2 4 2 6 4 1 3 5 5 4 4 3 2 2 3 4 2 2 4 3 6 2 3 3 4 2 2 0 2 12 14 9 7 16 16 18
19 15 16 17 9 8 7 3 4 8 5 3 5 8 3 6 5 5 3 3 7 3 2 1 4 1 2 3 3 5 2 2 4 4 2 4 5 6 17 9 18 24 18 27 21
17 15 16 13 6 6 3 4 5 3 4 4 5 4 2 3 4 5 3 3 1 7 2 3 2 2 3 2 1 2 4 4 3 4 2 2 0 7 18 14 21 17 25 22 21
11 14 16 14 9 7 4 5 3 4 6 2 2 4 3 2 2 2 1 3 2 5 5 2 4 1 4 4 10 7 5 1 2 3 4 4 4 5 11 12 14 13 17 20 21
7 6 9 9 9 10 4 4 3 6 4 3 3 4 4 4 2 1 3 3 4 5 8 2 0 3 2 4 2 2 4 4 2 3 1 2 3 5 10 11 13 11 18 21 24
8 3 6 10 7 4 3 4 6 6 3 3 3 5 3 1 3 4 3 4 2 5 2 4 2 3 3 3 3 3 5 2 3 3 3 3 4 3 8 7 17 15 20 24 24
5 3 4 10 4 3 3 3 3 5 6 6 6 4 2 2 4 3 3 7 9 4 3 1 3 3 7 5 5 4 6 4 3 3 6 4 3 4 6 7 13 16 22 20 23
4 2 4 6 2 3 2 4 1 2 4 4 3 4 3 3 3 3 1 3 3 2 4 0 4 2 3 5 4 6 12 9 5 4 5 4 8 5 5 7 11 18 20 21 22
2 1 1 2 5 3 1 2 3 3 5 9 5 6 4 5 3 3 1 2 4 4 1 3 3 3 4 4 4 5 7 11 13 7 6 11 8 7 7 7 12 17 18 20 20
2 3 1 3 2 2 2 1 4 4 5 5 5 5 9 5 3 4 4 5 2 6 4 2 0 2 5 5 7 5 12 10 11 11 9 7 5 5 12 18 16 17 17 18 17
6 8 2 3 4 2 1 1 3 1 4 6 4 3 7 6 15 15 3 3 3 2 5 2 2 2 3 3 5 5 5 5 3 5 6 6 5 5 5 9 14 16 16 14 11
Wind_Direction
323 321 320 316 316 282 266 261 304 254 256 260 268 271 277 242 254 260 256 179 214 235 228 167 168 113 181 226 223 235 268 217 227 230 254 295 299 298 310 299 299 299 307 307 284
323 324 324 318 315 311 304 249 256 276 247 251 258 262 264 233 255 259 185 204 240 246 159 149 175 165 154 235 219 186 209 196 242 298 320 313 311 315 319 307 303 305 302 360 278
312 316 320 324 314 315 311 267 250 252 234 249 250 240 209 212 274 269 193 199 224 180 156 175 168 124 126 274 233 226 222 255 287 295 294 288 295 302 293 290 295 294 301 314 328
307 309 308 313 317 313 310 313 227 221 236 238 228 207 181 191 210 175 176 176 187 162 149 134 140 143 155 230 272 274 258 264 272 272 280 282 289 281 282 273 285 291 300 298 316
302 301 301 303 309 316 312 310 243 230 216 219 213 179 173 201 210 192 177 165 167 158 168 177 167 187 210 248 292 270 273 276 281 281 279 273 260 263 268 282 280 284 287 292 296
298 297 297 302 302 312 314 304 275 247 223 208 190 172 172 220 160 192 199 172 138 135 162 192 209 207 267 259 223 284 305 290 284 280 283 276 275 253 255 266 275 274 277 286 288
296 294 288 291 299 309 313 300 264 231 198 215 190 165 169 171 210 191 168 159 156 160 198 226 223 213 217 261 292 284 291 277 253 258 258 271 273 251 260 256 262 273 276 276 282
297 289 287 281 298 311 321 298 248 198 203 186 177 160 143 169 176 184 177 168 176 169 212 241 234 215 220 285 315 244 255 324 207 271 249 210 271 264 268 253 250 262 269 271 274
293 285 280 257 294 308 324 37 162 176 171 166 152 139 111 173 184 199 184 166 165 186 169 149 147 170 139 258 308 268 289 301 311 242 257 268 276 310 255 245 248 254 266 262 258
316 302 332 191 302 311 325 314 151 144 138 139 145 140 182 190 185 188 184 178 171 177 163 191 173 205 210 170 240 249 310 278 278 312 293 275 263 269 249 231 245 270 284 271 253
331 326 330 274 283 297 266 147 110 114 141 119 157 70 140 144 149 160 178 169 170 195 203 179 184 235 222 227 234 271 283 286 288 282 295 268 271 269 229 223 253 263 270 247 246
324 320 289 261 313 313 190 156 148 91 51 119 142 101 136 149 135 171 169 154 188 207 208 152 245 228 232 237 253 265 274 274 281 260 278 282 273 265 209 218 243 242 235 235 252
299 308 310 252 22 84 160 178 2 135 62 144 162 173 132 137 139 163 177 209 207 219 223 188 238 140 216 241 255 259 247 258 265 294 268 259 280 239 228 206 226 247 271 230 245
310 301 190 99 78 106 66 203 159 177 108 64 163 145 156 148 296 177 190 272 232 234 234 233 252 223 254 265 238 268 240 268 297 264 273 72 283 358 320 297 229 244 245 234 243
92 88 105 85 88 74 53 93 172 168 103 139 106 146 163 175 137 146 182 220 259 272 118 252 313 110 268 243 131 261 330 305 284 260 278 226 243 184 328 294 271 250 235 223 240
98 80 69 71 74 68 81 120 123 86 91 116 144 133 125 230 149 138 185 234 267 295 269 245 218 204 230 297 246 306 292 276 240 234 243 273 199 264 317 287 286 173 175 164 162
83 80 64 59 85 107 118 129 72 43 145 139 123 144 134 172 133 166 192 206 191 56 298 292 210 152 57 330 242 221 280 315 246 191 360 305 340 276 304 298 254 147 140 132 129
76 67 56 54 77 61 63 36 52 29 66 188 129 121 149 153 185 195 190 263 220 196 296 249 326 121 80 221 310 314 315 268 306 359 45 26 354 327 306 84 96 100 96 94 93
70 63 59 48 41 39 51 49 32 35 322 121 144 98 114 184 148 177 233 209 216 188 204 312 270 141 220 289 234 105 228 179 254 216 157 354 189 292 357 47 64 70 82 75 90
70 52 46 22 34 8 61 77 57 357 25 13 182 145 129 142 111 69 178 352 98 66 6 17 295 320 287 286 226 219 333 341 251 9 64 12 21 22 0 52 71 62 78 82 91
58 56 29 34 18 48 51 47 330 316 187 230 310 100 106 125 120 212 251 16 17 45 344 56 226 314 249 221 269 242 292 243 248 139 118 73 30 1 48 62 78 63 83 88 88
55 50 30 16 49 32 45 343 312 294 318 308 332 50 107 88 139 193 63 48 330 184 299 213 269 306 274 280 265 261 265 274 103 27 52 90 55 337 80 61 90 78 76 89 95
75 43 33 4 58 39 40 334 296 345 2 7 10 19 349 111 95 103 129 232 247 207 280 76 349 352 335 349 357 335 322 304 97 53 11 82 97 277 72 68 95 106 103 98 93
98 47 9 30 73 119 39 322 1 283 293 346 292 325 335 51 60 100 110 234 272 244 221 319 33 78 145 224 259 332 352 359 94 73 79 51 131 119 111 104 89 94 97 95 90
67 111 83 347 20 89 108 312 5 10 329 21 25 45 53 45 45 51 321 311 283 310 51 100 51 37 7 11 3 358 358 18 74 135 111 171 133 157 146 133 118 112 105 95 89
72 124 142 68 40 56 335 270 49 358 29 349 42 18 59 84 54 37 5 14 43 332 28 36 89 44 11 14 52 22 9 26 49 75 91 112 95 173 141 126 123 121 112 105 104
84 115 120 351 313 356 228 318 60 11 41 45 333 78 41 349 327 314 41 81 65 40 356 43 104 57 302 343 8 15 332 1 35 49 126 128 165 130 102 109 126 126 117 112 109